Location: Waldport
(44.4270°N, 124.0680°W)
Time: 16:29:33
(UTC-07:00)

Terra - Pass Details

Date: 23 June 2018
Orbit: 702 x 703 km, 98.2° (Epoch: 21 July)

Event Time Altitude Azimuth Distance (km) Brightness Sun altitude
Exits shadow 21:41:22 - 107° (ESE) 2,634 4.2 -6.0°
Reaches altitude 10° 21:43:10 10° 91° (E) 2,172 3.9 -6.2°
Maximum altitude 21:45:40 14° 59° (ENE) 1,890 3.9 -6.5°
Drops below altitude 10° 21:48:10 10° 28° (NNE) 2,179 4.6 -6.9°
Sets 21:51:24 0° 4° (N) 3,102 5.8 -7.3°
